KE7YUP Weather Reports


time (UTC)temp
F
wind
direction
speed
knots
gust
knots
rain 1hr
in
rain 24hr
in
rain mn
in
humidity
%
barometer
mb
20260903021215 76 191 0.9 2.6 0.00 0.00 0.00 15 1015.1
20260903020215 77 190 2.6 6.1 0.00 0.00 0.00 15 1014.8
20260903015215 77 184 2.6 5.2 0.00 0.00 0.00 15 1015.4
20260903014255 78 191 4.3 7.0 0.00 0.00 0.00 15 1015.4
20260903013215 78 192 5.2 11.3 0.00 0.00 0.00 15 1015.3
20260903012215 79 200 7.8 11.3 0.00 0.00 0.00 14 1015.8
20260903011215 79 212 7.0 11.3 0.00 0.00 0.00 15 1015.8
20260903010215 79 204 7.8 13.0 0.00 0.00 0.00 14 1015.5
20260903005235 79 196 8.7 12.2 0.00 0.00 0.00 14 1015.6
20260903004215 79 179 5.2 8.7 0.00 0.00 0.00 15 1015.7
20260903003215 80 203 7.0 11.3 0.00 0.00 0.00 15 1015.4
20260903002255 80 202 10.4 15.6 0.00 0.00 0.00 15 1015.4
20260903001215 80 190 9.6 15.6 0.00 0.00 0.00 14 1015.5
20260903000215 81 211 10.4 20.0 0.00 0.00 0.00 13 1015.5
20260902235215 81 222 10.4 19.1 0.00 0.00 0.00 14 1015.7
20260902234215 81 204 10.4 22.6 0.00 0.00 0.00 15 1015.9
20260902233215 81 208 9.6 15.6 0.00 0.00 0.00 15 1016.0
20260902232217 80 199 8.7 13.0 0.00 0.00 0.00 18 1016.2
20260902231217 80 194 12.2 17.4 0.00 0.00 0.00 16 1016.2
20260902230217 80 199 7.0 13.0 0.00 0.00 0.00 16 1016.3
20260902225217 81 233 13.9 17.4 0.00 0.00 0.00 15 1016.5
20260902224217 80 177 7.0 11.3 0.00 0.00 0.00 19 1016.4
20260902223237 81 188 8.7 15.6 0.00 0.00 0.00 18 1016.3
20260902222237 81 217 9.6 14.8 0.00 0.00 0.00 17 1016.6
20260902221217 81 210 10.4 17.4 0.00 0.00 0.00 18 1016.6
20260902220217 81 212 9.6 16.5 0.00 0.00 0.00 18 1016.6
20260902215217 80 187 10.4 19.1 0.00 0.00 0.00 20 1016.5
20260902214216 80 224 11.3 18.2 0.00 0.00 0.00 20 1016.7
20260902213217 80 232 16.5 21.7 0.00 0.00 0.00 21 1016.6
20260902212216 80 224 9.6 14.8 0.00 0.00 0.00 21 1016.7
20260902211216 81 196 13.9 21.7 0.00 0.00 0.00 23 1016.8
20260902210217 80 201 13.0 20.0 0.00 0.00 0.00 20 1016.7
20260902205216 81 185 12.2 20.0 0.00 0.00 0.00 22 1017.1
20260902204216 81 194 10.4 19.1 0.00 0.00 0.00 22 1016.8
20260902203216 80 196 13.9 20.9 0.00 0.00 0.00 24 1017.3
20260902202216 80 226 10.4 21.7 0.00 0.00 0.00 25 1017.4
20260902201216 79 185 11.3 20.9 0.00 0.00 0.00 25 1017.3
20260902200216 79 217 7.0 18.2 0.00 0.00 0.00 26 1017.7
20260902195216 79 181 12.2 19.1 0.00 0.00 0.00 26 1017.9
20260902194216 78 171 6.1 11.3 0.00 0.00 0.00 28 1017.7
20260902193216 79 174 7.8 13.9 0.00 0.00 0.00 26 1017.9
20260902192216 79 212 10.4 22.6 0.00 0.00 0.00 27 1018.0
20260902191216 78 218 9.6 15.6 0.00 0.00 0.00 25 1018.0
20260902190216 78 201 9.6 16.5 0.00 0.00 0.00 28 1017.9
20260902185216 77 196 7.8 12.2 0.00 0.00 0.00 29 1017.9
20260902184216 77 233 11.3 20.0 0.00 0.00 0.00 29 1018.1
20260902183216 77 218 7.0 14.8 0.00 0.00 0.00 32 1018.6
20260902182316 77 206 10.4 17.4 0.00 0.00 0.00 32 1018.9
20260902181216 76 218 14.8 22.6 0.00 0.00 0.00 31 1018.7
20260902180217 75 208 8.7 19.1 0.00 0.00 0.00 31 1018.5
20260902175216 76 205 12.2 20.0 0.00 0.00 0.00 32 1018.8
20260902174216 75 210 13.0 20.9 0.00 0.00 0.00 34 1018.9
20260902173216 76 213 10.4 20.9 0.00 0.00 0.00 33 1018.9
20260902172216 75 229 16.5 24.3 0.00 0.00 0.00 35 1019.0
20260902171236 75 202 9.6 18.2 0.00 0.00 0.00 35 1018.9
20260902170216 76 217 12.2 19.1 0.00 0.00 0.00 37 1019.2
20260902165216 76 202 13.9 22.6 0.00 0.00 0.00 37 1019.6
20260902164216 75 196 12.2 18.2 0.00 0.00 0.00 38 1019.4
20260902163216 75 198 7.8 16.5 0.00 0.00 0.00 39 1019.4
20260902162216 73 203 7.8 13.0 0.00 0.00 0.00 39 1019.3
20260902161216 74 194 11.3 18.2 0.00 0.00 0.00 39 1019.5
20260902160216 73 197 10.4 16.5 0.00 0.00 0.00 39 1019.3
20260902155216 73 188 15.6 22.6 0.00 0.00 0.00 40 1019.4
20260902154236 71 179 8.7 14.8 0.00 0.00 0.00 47 1019.2
20260902153216 70 134 7.0 10.4 0.00 0.00 0.00 52 1019.6
20260902152216 69 176 6.1 8.7 0.00 0.00 0.00 54 1019.3
20260902151215 68 129 6.1 9.6 0.00 0.00 0.00 56 1019.4
20260902150216 69 150 4.3 7.0 0.00 0.00 0.00 55 1019.8
20260902145216 71 156 9.6 15.6 0.00 0.00 0.00 43 1019.8
20260902144216 71 160 7.8 14.8 0.00 0.00 0.00 44 1019.6
20260902143216 70 164 9.6 13.9 0.00 0.00 0.00 44 1019.3
20260902142216 71 169 6.1 11.3 0.00 0.00 0.00 44 1019.3
20260902141216 71 182 7.8 12.2 0.00 0.00 0.00 44 1019.1
20260902140215 70 178 7.8 10.4 0.00 0.00 0.00 46 1019.4
20260902135216 69 177 4.3 11.3 0.00 0.00 0.00 47 1019.0
20260902134215 69 201 5.2 9.6 0.00 0.00 0.00 47 1019.0
20260902133216 69 176 7.8 13.0 0.00 0.00 0.00 46 1019.2
20260902132236 69 177 5.2 10.4 0.00 0.00 0.00 46 1019.1
20260902131215 69 190 7.8 13.9 0.00 0.00 0.00 47 1019.2
20260902130215 69 181 7.0 11.3 0.00 0.00 0.00 47 1019.1
20260902125216 69 182 7.8 15.6 0.00 0.00 0.00 47 1019.0
20260902124215 68 184 7.8 13.9 0.00 0.00 0.00 49 1018.8
20260902123216 68 183 7.0 12.2 0.00 0.00 0.00 50 1018.8
20260902122215 66 191 3.5 7.0 0.00 0.00 0.00 54 1018.4
20260902121216 65 140 0.0 1.7 0.00 0.00 0.00 62 1018.2
20260902120215 65 43 3.5 4.3 0.00 0.00 0.00 65 1018.3
20260902115235 65 325 0.9 3.5 0.00 0.00 0.00 64 1018.5
20260902114215 65 55 5.2 7.8 0.00 0.00 0.00 65 1018.5
20260902113216 65 37 2.6 4.3 0.00 0.00 0.00 66 1018.7
20260902112215 65 40 3.5 5.2 0.00 0.00 0.00 64 1018.8
20260902111215 66 73 7.0 7.8 0.00 0.00 0.00 61 1018.9
20260902110235 66 158 0.0 3.5 0.00 0.00 0.00 58 1019.3
20260902105215 67 128 2.6 5.2 0.00 0.00 0.00 55 1019.1
20260902104235 67 134 3.5 7.8 0.00 0.00 0.00 54 1019.1
20260902103215 66 116 2.6 5.2 0.00 0.00 0.00 54 1018.8
20260902102215 66 139 2.6 5.2 0.00 0.00 0.00 55 1018.9
20260902101215 66 75 1.7 2.6 0.00 0.00 0.00 57 1018.8
20260902100215 65 76 0.0 0.9 0.00 0.00 0.00 59 1019.3
20260902095215 65 65 2.6 3.5 0.00 0.00 0.00 61 1019.3
20260902094215 65 92 1.7 3.5 0.00 0.00 0.00 61 1019.4
20260902093215 65 59 3.5 7.0 0.00 0.00 0.00 61 1018.7
20260902092215 65 52 3.5 5.2 0.00 0.00 0.00 60 1018.8
20260902091257 64 52 2.6 3.5 0.00 0.00 0.00 62 1018.5
20260902090235 65 58 3.5 4.3 0.00 0.00 0.00 61 1018.9
20260902085215 65 56 3.5 4.3 0.00 0.00 0.00 60 1019.0
20260902084215 65 34 2.6 4.3 0.00 0.00 0.00 62 1019.0
20260902083215 65 341 4.3 5.2 0.00 0.00 0.00 58 1019.0
20260902082215 66 26 1.7 2.6 0.00 0.00 0.00 58 1019.4
20260902081217 66 51 1.7 3.5 0.00 0.00 0.00 57 1019.5
20260902080237 65 42 1.7 3.5 0.00 0.00 0.00 59 1019.0
20260902075217 65 329 2.6 3.5 0.00 0.00 0.00 57 1019.0
20260902074217 67 53 1.7 2.6 0.00 0.00 0.00 54 1019.2
20260902073217 67 75 4.3 6.1 0.00 0.00 0.00 51 1019.2
20260902072217 66 0.0 0.9 0.00 0.00 0.00 50 1018.7
20260902071257 66 355 0.0 0.9 0.00 0.00 0.00 51 1018.6
20260902070217 65 355 0.0 0.9 0.00 0.00 0.00 53 1018.3
20260902065237 65 355 1.7 2.6 0.00 0.00 0.00 58 1018.4
20260902064217 66 355 0.9 1.7 0.00 0.00 0.00 57 1018.4
20260902063216 65 355 2.6 4.3 0.00 0.00 0.00 56 1018.0
20260902062217 66 355 1.7 1.7 0.00 0.00 0.00 56 1018.1
20260902061217 67 355 1.7 2.6 0.00 0.00 0.00 56 1018.2
20260902060216 67 355 0.9 1.7 0.00 0.00 0.00 56 1018.3
20260902055216 68 355 0.0 1.7 0.00 0.00 0.00 55 1018.5
20260902054236 68 355 2.6 2.6 0.00 0.00 0.00 55 1018.5
20260902053216 67 355 1.7 2.6 0.00 0.00 0.00 56 1017.8
20260902052216 67 355 2.6 3.5 0.00 0.00 0.00 57 1017.9
20260902051215 67 355 3.5 5.2 0.00 0.00 0.00 56 1017.9
20260902050215 68 355 3.5 4.3 0.00 0.00 0.00 54 1017.9
20260902045216 69 324 4.3 7.0 0.00 0.00 0.00 53 1018.0
20260902044215 70 319 2.6 3.5 0.00 0.00 0.00 50 1018.4
20260902043216 70 0.0 0.0 0.00 0.00 0.00 49 1018.3
20260902042215 70 319 1.7 3.5 0.00 0.00 0.00 50 1018.4
20260902041215 70 257 1.7 2.6 0.00 0.00 0.00 51 1018.4
20260902040215 71 257 0.9 2.6 0.00 0.00 0.00 51 1018.6
20260902035215 71 38 2.6 3.5 0.00 0.00 0.00 53 1018.6
20260902034215 72 319 2.6 3.5 0.00 0.00 0.00 49 1018.8
20260902033215 73 0.0 0.0 0.00 0.00 0.00 44 1018.6
20260902032215 74 198 0.9 2.6 0.00 0.00 0.00 42 1018.3
20260902031216 74 165 2.6 4.3 0.00 0.00 0.00 42 1018.2
20260902030215 75 156 3.5 6.1 0.00 0.00 0.00 39 1017.9
20260902025215 75 161 2.6 5.2 0.00 0.00 0.00 38 1017.9
20260902024215 75 178 5.2 10.4 0.00 0.00 0.00 38 1017.8
20260902023215 75 167 3.5 7.0 0.00 0.00 0.00 40 1017.8
20260902022215 75 178 3.5 6.1 0.00 0.00 0.00 42 1017.7